Hope, British Columbia

10:19 AM PDT on August 28, 2016 (GMT -0700)
Hope

Weather History for CYHE - March, 2013

Change the Weather History Date:

Saturday, March 2, 2013

  Actual Average Record
Temperature  
Mean Temperature 46 °F -  
Max Temperature 51 °F 52 °F 69 °F (2016)
Min Temperature 41 °F 35 °F 24 °F (2014)
Degree Days  
Heating Degree Days 19    
Moisture  
Dew Point 42 °F    
Average Humidity 90    
Maximum Humidity 100    
Minimum Humidity 66    
Precipitation  
Precipitation 0.35 in 0.21 in - ()
Sea Level Pressure  
Sea Level Pressure 30.07 in    
Wind  
Wind Speed 6 mph ()    
Max Wind Speed 40 mph    
Max Gust Speed 51 mph    
Visibility 7.3 miles    
Events Rain    
Averages and records for this station are not official NWS values.
T = Trace of Precipitation, MM = Missing Value Source: Averaged Metar Reports

Daily Weather History Graph

Daily Weather History Graph

Search for Another Location

Airport or City:

Trip Planner

Search our weather history database for the weather conditions in past years. The results will help you decide how hot, cold, wet, or windy it might be!

Date:

Astronomy

Mar. 02, 2013 Rise Set
Actual Time 6:45 AM PST 5:51 PM PST
Civil Twilight 6:13 AM PST 6:23 PM PST
Nautical Twilight 5:36 AM PST 7:00 PM PST
Astronomical Twilight 4:59 AM PST 7:37 PM PST
Moon No Moon Rise 8:45 AM PST (3/2)
Length of Visible Light 12h 09m
Length of Day
11h 05m
Waning Gibbous, 73% of the Moon is Illuminated
Mar 2
Waning Gibbous
Mar 4
Last Quarter
Mar 11
New
Mar 19
First Quarter
Mar 27
Full

Hourly Weather History & Observations

Time (PST) Temp. Windchill Dew Point Humidity Pressure Visibility Wind Dir Wind Speed Gust Speed Precip Events Conditions
12:00 AM 44.6 °F - 42.8 °F 93% 30.22 in 4.0 mi Calm Calm - N/A Rain Rain
12:22 AM 44.6 °F - 42.8 °F 93% 30.22 in 6.0 mi Variable 2.3 mph - N/A Rain Light Rain
12:35 AM 44.6 °F - 42.8 °F 93% 30.22 in 5.0 mi Calm Calm - N/A Rain Light Rain
12:46 AM 44.6 °F - 42.8 °F 93% 30.22 in 6.0 mi Calm Calm - N/A Rain Light Rain
12:48 AM 44.6 °F - 42.8 °F 93% 30.22 in 5.0 mi Calm Calm - N/A Rain Rain
1:00 AM 44 °F - 44 °F 97% 30.21 in - North 1.2 mph - -  
1:00 AM 44.6 °F - 42.8 °F 93% 30.21 in 5.0 mi Calm Calm - N/A Rain Light Rain
1:05 AM 44.6 °F - 42.8 °F 93% 30.21 in 6.0 mi Variable 2.3 mph - N/A Rain Light Rain
2:19 AM 44.6 °F - 44.6 °F 100% 30.20 in 5.0 mi Calm Calm - N/A Rain Light Rain
2:40 AM 44.6 °F - 42.8 °F 93% 30.20 in 6.0 mi Variable 2.3 mph - N/A Rain Light Rain
3:00 AM 44.6 °F - 42.8 °F 93% 30.20 in 8.0 mi Variable 2.3 mph - N/A Rain Light Rain
3:06 AM 44.6 °F 43.1 °F 42.8 °F 93% 30.19 in 5.0 mi East 3.5 mph - N/A Rain Light Rain
3:26 AM 44.6 °F 42.2 °F 42.8 °F 93% 30.18 in 6.0 mi SE 4.6 mph - N/A Rain Light Rain
4:00 AM 44 °F - 43 °F 97% 30.16 in - Calm Calm - -  
4:00 AM 44.6 °F - 42.8 °F 93% 30.17 in 9.0 mi Variable 2.3 mph - N/A Rain Light Rain
5:00 AM 44.6 °F - 42.8 °F 93% 30.16 in 9.0 mi Calm Calm - N/A Rain Light Rain
5:02 AM 44.6 °F - 42.8 °F 93% 30.16 in 9.0 mi Calm Calm - N/A   Overcast
5:10 AM 44.6 °F 43.1 °F 42.8 °F 93% 30.15 in 9.0 mi East 3.5 mph - N/A Rain Light Rain
5:21 AM 42.8 °F - 42.8 °F 100% 30.15 in 5.0 mi Calm Calm - N/A Rain Light Rain
5:36 AM 42.8 °F - 42.8 °F 100% 30.15 in 7.0 mi Calm Calm - N/A Rain Light Rain
5:49 AM 42.8 °F - 42.8 °F 100% 30.14 in 9.0 mi Variable 2.3 mph - N/A   Overcast
6:00 AM 42.8 °F - 42.8 °F 100% 30.13 in 9.0 mi East 2.3 mph - N/A   Overcast
6:04 AM 42.8 °F - 42.8 °F 100% 30.13 in 9.0 mi East 2.3 mph - N/A Rain Light Rain
6:17 AM 42.8 °F - 42.8 °F 100% 30.13 in 9.0 mi Variable 2.3 mph - N/A   Overcast
6:32 AM 42.8 °F - 42.8 °F 100% 30.13 in 9.0 mi Calm Calm - N/A   Overcast
6:36 AM 42.8 °F - 42.8 °F 100% 30.13 in 9.0 mi Calm Calm - N/A   Overcast
7:00 AM 43 °F - 43 °F 99% 30.12 in - Calm Calm - -  
7:00 AM 42.8 °F - 42.8 °F 100% 30.13 in 9.0 mi Calm Calm - N/A   Overcast
7:09 AM 42.8 °F - 42.8 °F 100% 30.12 in 7.0 mi Variable 2.3 mph - N/A Rain Light Rain
7:15 AM 42.8 °F - 42.8 °F 100% 30.12 in 9.0 mi SE 2.3 mph - N/A Rain Light Rain
7:19 AM 42.8 °F - 42.8 °F 100% 30.12 in 9.0 mi ESE 2.3 mph - N/A   Overcast
7:21 AM 42.8 °F - 42.8 °F 100% 30.12 in 9.0 mi SE 2.3 mph - N/A   Overcast
8:00 AM 44.6 °F 41.4 °F 42.8 °F 93% 30.10 in 9.0 mi ESE 5.8 mph - N/A   Overcast
8:04 AM 44.6 °F 42.2 °F 42.8 °F 93% 30.10 in 9.0 mi ESE 4.6 mph - N/A   Overcast
9:00 AM 44.6 °F - 44.6 °F 100% 30.09 in 9.0 mi Calm Calm - N/A   Overcast
9:11 AM 44.6 °F - 42.8 °F 93% 30.09 in 9.0 mi Calm Calm - N/A   Overcast
10:00 AM 45 °F - 44 °F 97% 30.06 in - Calm Calm - -  
10:00 AM 44.6 °F - 44.6 °F 100% 30.07 in 9.0 mi Variable 2.3 mph - N/A   Overcast
10:25 AM 46.4 °F - 44.6 °F 93% 30.05 in 9.0 mi Calm Calm - N/A   Overcast
11:00 AM 46.4 °F - 44.6 °F 93% 30.04 in 9.0 mi Variable 2.3 mph - N/A   Overcast
11:05 AM 46.4 °F - 44.6 °F 93% 30.03 in 9.0 mi Variable 2.3 mph - N/A   Overcast
11:06 AM 46.4 °F 45.2 °F 46.4 °F 100% 30.03 in 9.0 mi Variable 3.5 mph - N/A   Overcast
11:09 AM 46.4 °F 45.2 °F 46.4 °F 100% 30.03 in 9.0 mi WSW 3.5 mph - N/A   Overcast
11:49 AM 48.2 °F - 46.4 °F 93% 30.01 in 9.0 mi WSW 6.9 mph - N/A   Overcast
12:00 PM 50.0 °F - 46.4 °F 87% 30.01 in 9.0 mi WSW 5.8 mph - N/A   Overcast
12:09 PM 50.0 °F - 48.2 °F 94% 30.01 in 9.0 mi WSW 5.8 mph - N/A Rain Light Rain
1:00 PM 51 °F - 49 °F 89% 29.97 in - North 9.2 mph - -  
1:00 PM 51.8 °F - 48.2 °F 88% 29.97 in 9.0 mi West 11.5 mph - N/A Rain Light Rain
2:00 PM 51.8 °F - 46.4 °F 82% 29.93 in 9.0 mi West 8.1 mph - N/A Rain Light Rain
3:00 PM 50.0 °F - 48.2 °F 94% 29.88 in 9.0 mi SW 8.1 mph - N/A Rain Light Rain
3:11 PM 50.0 °F - 48.2 °F 94% 29.88 in 8.0 mi West 19.6 mph - N/A Rain Light Rain
3:15 PM 50.0 °F - 48.2 °F 94% 29.89 in 5.0 mi WNW 16.1 mph 25.3 mph N/A Rain Rain
3:16 PM 50.0 °F - 48.2 °F 94% 29.89 in 5.0 mi WNW 15.0 mph 25.3 mph N/A Rain Heavy Rain
3:22 PM 50.0 °F - 44.6 °F 82% 29.90 in 3.0 mi WNW 21.9 mph 41.4 mph N/A Rain Rain
3:33 PM 48.2 °F - 42.8 °F 82% 29.91 in 2.5 mi WNW 33.4 mph 48.3 mph N/A Rain Rain
3:35 PM 48.2 °F - 42.8 °F 82% 29.93 in 2.2 mi West 40.3 mph 50.6 mph N/A Rain Heavy Rain
3:38 PM 48.2 °F - 41.0 °F 76% 29.93 in 1.8 mi West 31.1 mph 50.6 mph N/A Rain Rain
3:42 PM 46.4 °F 37.0 °F 41.0 °F 81% 29.94 in 1.8 mi WNW 31.1 mph 50.6 mph N/A Rain Heavy Rain
3:51 PM 46.4 °F 37.5 °F 41.0 °F 81% 29.95 in 2.2 mi West 27.6 mph 44.9 mph N/A Rain Rain
3:57 PM 46.4 °F 38.5 °F 41.0 °F 81% 29.95 in 3.0 mi WNW 21.9 mph 39.1 mph N/A Rain Rain
4:00 PM 45 °F - 42 °F 85% 29.96 in - Calm Calm - -  
4:00 PM 44.6 °F 35.5 °F 41.0 °F 87% 29.95 in 3.0 mi WNW 25.3 mph 39.1 mph N/A Rain Rain
5:00 PM 42.8 °F 35.1 °F 41.0 °F 93% 29.99 in 5.0 mi West 16.1 mph 27.6 mph N/A Rain Rain
5:16 PM 42.8 °F 36.2 °F 39.2 °F 87% 30.01 in 6.0 mi WNW 12.7 mph 25.3 mph N/A Rain Rain
6:00 PM 42.8 °F 35.8 °F 39.2 °F 87% 30.02 in 9.0 mi West 13.8 mph 21.9 mph N/A Rain Light Rain
6:19 PM 42.8 °F 35.4 °F 39.2 °F 87% 30.02 in 5.0 mi West 15.0 mph 21.9 mph N/A Rain Rain
6:47 PM 42.8 °F 36.6 °F 39.2 °F 87% 30.03 in 6.0 mi West 11.5 mph 19.6 mph N/A Rain Light Rain
7:00 PM 42 °F - 40 °F 88% 30.03 in - North 12.7 mph - -  
7:00 PM 42.8 °F 35.8 °F 39.2 °F 87% 30.03 in 9.0 mi WSW 13.8 mph 19.6 mph N/A Rain Light Rain
7:22 PM 42.8 °F 35.8 °F 39.2 °F 87% 30.04 in 9.0 mi WSW 13.8 mph 20.7 mph N/A   Overcast
8:00 PM 42.8 °F 35.4 °F 39.2 °F 87% 30.04 in 9.0 mi West 15.0 mph 21.9 mph N/A   Mostly Cloudy
8:46 PM 44.6 °F 37.8 °F 39.2 °F 81% 30.04 in 9.0 mi WNW 15.0 mph 24.2 mph N/A Rain Light Rain
9:00 PM 44.6 °F 36.1 °F 37.4 °F 76% 30.03 in 9.0 mi West 21.9 mph 32.2 mph N/A Rain Light Rain
9:10 PM 44.6 °F 36.1 °F 37.4 °F 76% 30.02 in 9.0 mi West 21.9 mph 31.1 mph N/A   Scattered Clouds
9:38 PM 44.6 °F 37.2 °F 37.4 °F 76% 30.03 in 9.0 mi WNW 17.3 mph 33.4 mph N/A Rain Light Rain
9:54 PM 44.6 °F 37.4 °F 37.4 °F 76% 30.04 in 9.0 mi WNW 16.1 mph 29.9 mph N/A   Mostly Cloudy
9:58 PM 44.6 °F 36.6 °F 37.4 °F 76% 30.04 in 9.0 mi WNW 19.6 mph 36.8 mph N/A Rain Light Rain
10:00 PM 44 °F - 37 °F 68% 30.04 in - Calm Calm - -  
10:00 PM 44.6 °F 35.5 °F 35.6 °F 71% 30.04 in 9.0 mi West 25.3 mph 36.8 mph N/A Rain Light Rain
10:24 PM 44.6 °F 36.1 °F 35.6 °F 71% 30.04 in 9.0 mi West 21.9 mph 42.6 mph N/A   Mostly Cloudy
10:34 PM 44.6 °F 36.9 °F 35.6 °F 71% 30.05 in 9.0 mi WNW 18.4 mph 38.0 mph N/A Rain Light Rain
10:43 PM 42.8 °F 34.0 °F 35.6 °F 76% 30.06 in 5.0 mi West 20.7 mph 33.4 mph N/A Rain Light Rain
10:47 PM 42.8 °F 33.8 °F 35.6 °F 76% 30.06 in 6.0 mi West 21.9 mph 35.7 mph N/A Rain Light Rain
11:00 PM 42.8 °F 33.5 °F 33.8 °F 70% 30.06 in 9.0 mi West 23.0 mph 40.3 mph N/A Rain Light Rain
11:12 PM 42.8 °F 33.3 °F 32.0 °F 66% 30.06 in 9.0 mi WNW 24.2 mph 34.5 mph N/A   Mostly Cloudy